Regional Weather Roundup
Issued by NWS

Home | Current Version | Previous Version | Graphics & Text | Print | Product List | Glossary On
Versions: 1 2 3 4 5 6 7 8 9 10 11 12 13 14 15 16 17 18 19 20 21 22 23 24 25 26 27 28 29 30 31 32 33 34 35 36 37 38 39 40 41 42 43 44 45 46 47 48 49 50
000
ASUS43 KBIS 010359
RWRND

NORTH DAKOTA REGIONAL WEATHER ROUNDUP
NATIONAL WEATHER SERVICE BISMARCK ND
1100 PM CDT TUE SEP 30 2014

NOTE: "FAIR" INDICATES FEW OR NO CLOUDS BELOW 12,000 FEET WITH NO
SIGNIFICANT WEATHER AND/OR OBSTRUCTIONS TO VISIBILITY.


NDZ001>003-009>011-017-010500-
NORTHWEST NORTH DAKOTA

CITY           SKY/WX    TMP DP  RH WIND       PRES   REMARKS
WILLISTON      CLOUDY    51  49  92 CALM      29.50S
MINOT          LGT RAIN  51  49  92 N7        29.43F
MINOT AFB      LGT RAIN  51  51 100 NE6       29.43F
$$

NDZ018>021-031>035-040>046-010500-
SOUTHWEST NORTH DAKOTA

CITY           SKY/WX    TMP DP  RH WIND       PRES   REMARKS
BISMARCK       CLOUDY    55  55 100 SW14      29.42R
GARRISON         N/A     51  50  96 NW8       29.41F
HETTINGER ARPT CLOUDY    52  50  93 W14       29.55R
$$

NDZ004>008-012>016-024-026-027-054-010500-
NORTHEAST NORTH DAKOTA

CITY           SKY/WX    TMP DP  RH WIND       PRES   REMARKS
GRAND FORKS    CLOUDY    57  48  72 SE23G32   29.57F
DEVILS LAKE    CLOUDY    57  48  72 SE23G33   29.45F
$$

NDZ022-023-025-028>030-036>039-047>053-010500-
SOUTHEAST NORTH DAKOTA

CITY           SKY/WX    TMP DP  RH WIND       PRES   REMARKS
FARGO          LGT RAIN  61  51  70 SE29G38   29.60F
$$




USA.gov is the U.S. government's official web portal to all federal, state and local government web resources and services.